Probability
0 0 0 0 0 0 0 0 0 0 0 0 0 0 1 2 3 5 10 19 26 27 27 25 22 19 16 16 19 21 22 23 22 21 20 18 17 15 12 10 9 8 6 3
0 0 0 0 0 0 0 0 0 0 0 0 0 0 1 2 3 4 10 19 26 30 32 30 26 23 22 23 23 21 19 21 22 23 21 19 17 16 13 12 10 8 5 3
0 0 0 0 0 0 0 0 0 0 0 0 0 0 0 1 3 5 9 18 27 32 36 37 33 29 29 30 26 20 17 20 23 24 22 20 18 16 14 12 10 8 7 6
0 0 0 0 0 0 0 0 0 0 0 0 0 0 0 1 4 6 9 16 24 31 36 37 35 34 33 32 27 21 20 24 26 25 22 21 19 14 12 12 11 10 9 8
0 0 0 0 0 0 0 0 0 0 0 0 0 0 0 1 3 6 9 13 20 27 32 33 32 34 32 29 26 25 26 27 27 24 21 20 17 13 12 13 13 13 10 9
0 0 0 0 0 0 0 0 0 0 0 0 0 0 0 1 3 5 8 12 18 26 31 31 32 33 31 27 27 29 31 31 27 24 21 20 18 16 14 15 16 13 9 7
0 0 0 0 0 0 0 0 0 0 0 0 0 0 1 2 3 4 8 11 17 25 31 32 32 31 28 27 29 31 32 32 31 28 25 25 23 20 18 19 18 12 6 5
0 0 0 0 0 0 0 0 0 0 0 0 0 1 2 3 3 5 7 11 16 22 26 28 28 26 24 27 31 32 30 30 32 30 29 29 26 21 19 20 18 11 5 4
0 0 0 0 0 0 0 0 0 0 0 0 0 1 2 3 4 5 7 10 15 17 18 20 23 24 25 28 33 34 31 28 28 28 28 27 23 18 19 21 18 13 8 6
0 0 0 0 0 0 0 0 0 0 0 0 0 0 1 3 4 5 6 9 15 17 15 17 23 28 30 30 32 33 30 26 24 24 25 24 21 19 22 24 21 16 12 10
0 0 0 0 0 0 0 0 0 0 0 0 0 0 1 2 3 4 6 9 15 19 19 21 27 33 33 30 27 26 24 22 22 23 25 25 24 24 26 27 24 19 16 14
0 0 0 0 0 0 0 0 0 0 0 0 0 0 1 2 3 5 8 12 16 19 22 27 32 35 33 28 23 20 19 20 22 24 25 27 28 28 30 30 25 21 18 17
1 0 0 0 0 0 0 0 0 0 0 0 0 0 0 1 3 8 13 16 18 21 25 32 37 37 33 28 25 22 21 22 23 24 25 27 30 31 30 30 29 25 22 20
1 0 0 0 0 0 0 0 0 0 0 0 0 0 0 1 4 10 15 19 21 24 27 32 37 38 35 32 31 30 26 24 25 25 26 27 30 30 29 29 30 29 26 24
1 1 0 0 0 0 0 0 0 0 0 0 0 0 1 2 7 12 16 19 21 23 25 28 32 35 35 33 33 33 30 26 25 26 26 28 29 29 28 28 29 30 28 25
1 1 0 0 0 0 0 0 0 0 0 0 0 1 3 6 10 13 15 17 20 23 24 24 27 31 33 31 30 30 29 27 27 26 26 27 28 27 27 28 28 29 27 26
0 0 0 0 0 0 0 0 0 0 0 0 1 2 7 11 14 16 18 19 21 24 25 23 23 26 28 28 28 28 28 28 27 26 24 25 25 24 25 27 27 27 27 26
1 1 0 0 0 0 0 1 2 1 1 1 2 5 11 15 17 20 22 22 22 25 26 25 23 22 23 24 25 26 27 26 24 22 21 22 22 22 23 25 25 25 25 24
3 3 1 0 0 0 1 3 5 4 3 4 5 9 13 16 16 18 21 22 23 26 29 29 26 24 23 22 21 21 21 20 19 18 19 20 20 20 21 23 24 25 24 23
3 4 2 0 1 2 3 5 6 6 7 8 9 12 14 14 15 16 18 21 23 26 31 32 30 27 25 22 18 15 13 12 13 15 18 19 19 18 20 23 25 27 27 25
4 4 2 1 3 5 5 5 8 11 13 14 15 16 16 17 18 18 20 22 23 24 29 31 30 29 26 22 17 13 11 10 11 14 17 17 17 17 19 24 27 29 29 27
8 8 9 7 8 9 9 11 15 18 20 20 19 19 18 20 20 19 21 24 22 22 25 27 26 26 25 20 15 13 13 12 13 16 18 18 17 16 19 25 31 31 31 30
16 16 16 14 13 13 14 18 21 21 21 21 20 18 16 16 15 17 20 22 22 21 22 21 20 21 21 18 15 15 15 15 16 17 19 19 19 19 21 26 30 31 31 30
20 19 17 15 13 14 17 20 21 20 19 19 18 15 13 11 12 15 18 19 21 20 18 16 14 17 19 18 17 17 17 17 17 17 18 20 21 21 22 23 24 24 25 25
16 16 16 15 14 15 17 17 17 16 16 16 17 15 12 11 12 14 15 16 16 17 15 13 11 14 17 18 18 18 18 19 20 20 21 23 24 24 22 19 15 14 15 15
11 14 17 18 17 16 16 15 13 13 13 14 16 16 12 12 13 14 14 12 12 13 13 12 11 13 16 18 17 17 19 21 24 26 26 27 27 25 22 17 11 8 7 7
Wind_Speed
14 14 16 17 17 9 7 11 11 9 6 9 11 10 8 8 10 12 13 14 15 15 15 15 15 15 15 14 15 15 15 14 11 9 9 8 8 7 6 6 7 8 7 7
13 18 16 13 13 11 10 12 11 8 6 8 9 11 8 9 11 11 13 14 15 14 15 15 15 15 16 16 15 15 15 15 13 10 8 7 7 7 6 6 7 8 8 7
19 10 15 14 15 15 14 13 11 8 7 9 9 12 11 9 10 11 12 13 14 15 16 16 17 17 16 16 16 14 15 14 14 12 8 7 6 6 7 8 7 9 9 8
17 9 13 17 17 17 15 12 9 9 10 9 10 10 11 10 11 12 12 13 14 15 15 16 17 17 16 16 15 15 15 14 14 13 12 12 10 9 9 8 8 8 9 9
13 14 15 18 17 16 11 9 10 11 11 10 10 11 9 11 11 12 13 14 14 14 15 15 16 16 16 15 14 14 14 14 14 14 14 13 11 9 7 8 9 9 8 9
11 11 14 15 14 14 10 10 9 10 11 14 13 12 9 9 11 11 11 13 14 14 14 14 14 14 14 14 14 13 14 14 14 14 14 14 13 11 10 10 9 9 7 7
14 13 13 12 15 16 15 13 10 11 11 11 10 11 8 4 7 8 9 12 14 14 13 13 14 14 14 15 14 13 14 14 14 15 14 14 13 12 12 10 9 9 8 7
16 16 16 14 16 15 19 19 11 9 11 9 9 11 6 5 4 5 6 8 11 13 13 13 14 14 14 15 15 14 14 14 14 14 14 13 13 10 9 11 9 9 7 7
13 12 14 15 15 15 19 18 15 9 7 9 9 8 6 6 7 7 7 9 11 13 13 13 13 13 14 14 15 15 14 13 14 14 14 13 13 12 10 10 10 8 7 7
8 10 13 14 14 16 15 16 11 11 10 11 10 10 8 10 9 9 9 10 11 11 12 13 13 13 12 12 12 13 13 13 13 13 13 11 12 12 11 10 10 9 9 9
10 10 12 15 17 18 16 17 14 12 11 10 8 6 5 7 7 7 8 9 10 11 12 12 11 11 11 11 11 12 12 12 12 12 12 12 12 12 11 10 10 10 9 10
12 9 10 14 12 12 16 15 16 13 10 10 8 4 7 5 5 5 7 8 9 10 11 11 11 10 10 10 10 11 11 11 12 11 11 11 11 11 11 11 11 10 10 10
11 9 11 12 12 13 16 16 17 14 10 10 11 5 8 6 6 6 7 8 8 9 10 10 10 9 9 10 10 10 11 11 11 11 11 11 12 12 11 11 11 10 11 11
8 10 12 12 11 15 16 17 17 16 13 12 13 7 9 8 7 7 7 8 9 9 10 10 9 9 8 9 9 9 10 9 10 10 11 11 11 11 11 11 10 10 11 11
7 11 12 11 8 12 15 17 18 18 17 14 11 10 7 8 7 7 8 8 9 10 10 10 9 9 9 8 8 9 9 9 9 9 10 10 10 10 10 10 10 10 11 11
6 8 10 12 10 12 14 16 18 18 17 15 12 9 4 5 6 7 8 9 9 9 10 9 9 9 8 8 8 8 8 8 9 9 9 9 9 10 10 10 10 10 11 10
6 7 10 12 11 12 15 16 16 16 15 14 13 7 6 7 6 7 7 8 8 8 8 8 8 8 7 7 7 7 8 8 8 9 9 9 9 9 10 10 10 11 10 10
7 7 7 9 10 14 7 6 10 11 10 9 7 6 6 5 5 4 5 6 6 7 8 8 7 7 6 6 6 6 7 8 8 8 9 9 9 9 9 10 10 10 9 9
9 8 8 9 12 9 6 5 8 10 8 7 7 7 7 8 7 5 4 4 5 5 6 6 6 6 6 6 6 6 7 8 8 8 9 9 9 9 10 10 10 9 9 10
9 9 9 9 12 10 6 5 3 7 8 5 6 7 8 10 7 5 5 5 6 5 5 5 5 5 5 4 5 6 7 7 8 8 8 8 9 9 9 9 9 9 9 9
11 10 12 11 9 3 6 4 6 9 4 4 3 5 6 3 3 7 7 6 6 6 6 5 5 4 3 4 5 6 6 7 6 7 7 8 8 9 9 9 8 8 8 9
9 9 10 9 9 4 5 3 2 4 5 4 4 5 6 7 8 8 7 6 6 6 6 5 5 4 2 3 4 5 5 5 5 6 6 7 8 8 7 7 7 7 7 8
2 2 1 1 2 6 4 4 4 3 4 5 5 7 8 8 7 7 7 6 5 5 5 4 4 4 3 2 2 3 3 3 4 5 5 5 6 6 5 6 6 6 6 6
2 0 1 1 2 4 4 5 4 5 5 6 6 7 8 8 8 7 6 6 5 5 4 4 4 4 3 2 1 1 1 2 4 5 5 5 5 5 4 3 3 4 4 5
1 1 1 2 3 4 5 6 6 6 7 8 8 8 8 8 8 7 6 6 5 5 4 4 4 4 4 3 3 2 1 2 3 4 4 4 4 5 4 4 3 2 2 1
2 2 1 1 3 2 3 4 5 6 7 8 9 9 8 8 8 8 7 6 6 6 5 5 5 5 5 4 4 3 2 2 3 4 4 3 4 5 5 6 6 12 10 12
Wind_Direction
186 202 207 204 214 241 232 220 209 194 176 218 222 225 206 192 205 203 196 192 192 194 185 182 183 184 185 186 186 186 186 183 183 188 191 188 187 190 191 191 182 187 188 183
186 215 214 211 211 224 225 220 209 188 196 231 228 233 220 207 212 211 202 196 193 186 181 181 183 186 188 189 190 189 190 187 189 192 195 193 189 192 191 192 184 195 192 190
203 206 202 206 205 214 220 222 212 198 195 221 234 230 216 209 213 211 209 202 196 189 186 184 186 190 191 191 191 192 192 191 194 192 190 187 186 195 190 192 191 199 197 197
220 201 193 203 208 210 216 218 224 217 222 212 219 234 200 200 202 206 207 202 198 192 189 188 188 191 192 191 190 192 192 193 193 192 196 192 196 197 197 194 189 192 198 200
208 203 198 206 208 209 219 203 214 222 230 236 214 245 207 190 211 209 205 204 199 192 190 189 190 190 191 189 188 189 190 194 195 197 199 201 203 201 195 194 190 196 195 202
213 199 209 213 207 207 203 190 202 223 232 231 223 233 229 198 212 212 200 200 198 191 190 189 188 186 186 184 185 185 188 193 196 200 202 205 203 200 197 197 193 197 195 200
208 203 204 209 200 195 201 194 194 202 213 225 204 227 237 199 204 218 208 197 193 189 187 186 186 184 182 182 184 186 188 192 195 199 203 203 203 202 202 202 201 203 200 198
199 200 197 202 206 193 203 210 216 209 210 202 186 225 219 186 206 215 212 197 186 185 186 187 186 184 184 183 185 187 191 193 194 198 201 200 200 204 204 206 207 206 211 204
203 203 186 198 207 206 201 215 230 250 236 222 196 208 208 193 206 200 192 187 185 186 185 185 184 183 183 183 185 187 189 192 194 197 198 198 201 206 205 202 208 209 210 206
213 203 186 191 200 213 215 208 215 231 223 223 208 210 209 185 195 189 188 186 180 182 183 182 182 180 179 179 180 183 188 191 192 195 198 198 200 203 204 206 207 209 206 205
220 209 181 188 201 195 201 204 210 219 237 236 218 205 181 186 187 183 178 176 175 179 178 176 176 174 172 176 178 182 186 190 192 196 198 200 200 200 202 205 206 208 207 204
217 225 198 193 196 212 206 207 207 212 213 240 254 171 124 160 163 168 160 159 164 169 167 167 166 165 168 175 179 182 187 190 192 192 196 199 200 199 202 205 207 207 207 208
203 222 209 191 189 203 209 209 213 223 223 226 236 182 129 156 162 158 150 148 154 160 159 157 158 162 168 173 179 181 185 189 189 189 196 198 199 201 204 204 205 207 207 209
229 221 229 215 196 190 201 207 210 218 225 223 232 216 164 178 175 164 154 152 154 157 158 158 156 161 166 170 176 179 183 185 186 189 196 200 201 202 203 204 204 207 207 207
231 222 228 243 225 200 204 206 207 216 227 234 224 227 201 187 181 166 159 158 156 159 162 163 162 164 167 169 174 178 181 182 183 189 198 202 203 203 203 204 205 206 208 209
232 236 222 225 220 215 216 214 211 215 223 233 235 226 197 170 165 165 165 166 166 164 162 162 164 164 167 170 176 179 183 183 186 193 199 201 202 202 203 204 204 204 207 210
218 225 220 219 207 216 219 215 212 213 219 226 228 216 167 168 173 172 169 172 168 162 160 161 162 164 167 170 175 182 184 185 192 199 201 201 203 205 204 202 202 204 204 204
241 235 230 221 202 219 208 201 214 210 215 226 222 185 185 167 146 147 161 163 161 163 161 160 161 159 165 169 176 184 184 190 196 201 203 202 204 205 204 205 204 205 205 205
225 233 232 221 212 209 175 183 198 200 206 207 200 184 164 145 142 133 133 148 152 154 154 153 154 152 156 169 178 185 191 194 199 203 205 203 203 203 205 207 206 206 205 208
198 225 238 224 221 213 160 140 196 210 198 179 184 178 173 183 196 139 121 129 130 134 137 138 140 144 155 170 182 193 196 198 203 205 206 204 203 204 206 208 208 206 206 208
187 202 222 223 220 190 87 135 190 210 160 125 154 164 172 171 76 103 115 112 117 124 125 125 129 138 153 170 182 196 199 205 209 206 202 202 203 206 207 207 207 207 207 206
198 198 205 214 215 170 67 166 189 59 77 108 111 117 109 101 103 108 108 110 114 115 115 119 120 118 130 156 182 193 200 205 205 202 201 200 201 206 202 202 204 204 203 197
234 298 248 275 66 59 47 42 40 67 96 97 98 103 113 115 113 109 106 104 102 104 106 111 112 108 104 121 167 192 201 202 198 193 192 189 189 194 193 189 191 193 195 199
137 27 191 147 102 71 63 55 59 75 87 94 101 110 113 115 113 110 103 96 94 89 92 99 101 96 84 80 97 137 179 186 181 182 180 177 178 176 170 173 181 184 185 195
12 271 180 166 118 90 72 62 64 80 92 99 100 102 105 107 107 105 99 91 87 84 83 87 89 84 76 69 59 50 81 154 166 167 165 166 165 154 131 108 65 97 80 68
328 309 280 114 88 73 71 61 77 91 96 101 103 99 94 96 98 95 92 86 83 81 78 78 76 73 67 63 61 55 70 119 139 140 142 148 143 134 130 120 97 60 61 63